{"data":{"norad_id":66379,"intl_designator":"2025-255D","name":"SHIYAN-32 03","alt_names":[],"object_type":"PAYLOAD","status":"ACTIVE","operator":null,"country":"PRC","launch_date":"2025-11-08","launch_site_code":"YSLA","launch_vehicle":null,"mission":null,"orbit_class":"UNKNOWN","rcs_meters":null,"size_class":null,"mass_kg":null,"dimensions":null,"purposes":[],"wikipedia_slug":null,"has_3d_model":false,"image_url":null,"decayed_at":null,"tle_current":{"epoch":"2026-09-20T23:02:03.444576Z","epoch_age_seconds":92006,"freshness":"FRESH","line1":"1 66379U 25255D   26263.95976209  .00006195  00000+0  15319-3 0  9998","line2":"2 66379  52.9947 279.9281 0008101 124.3731 235.8040 15.41848969 48759","mean_motion":15.41848969,"eccentricity":0.0008101,"inclination_deg":52.9947,"raan_deg":279.9281,"arg_perigee_deg":124.3731,"mean_anomaly_deg":235.804,"bstar":0.00015319,"rev_number":4875,"period_min":93.394361507012,"perigee_km":435.1286161965,"apogee_km":446.17641897289,"semimajor_km":6818.7895175847,"source":"CELESTRAK","updated_at":"2026-09-21T09:00:15.951842Z"}}}